Location: Tamazert
(32.6352°N, 5.2072°W)
Time: 15:51:54
(UTC+00:00)

Vanguard 3 - Pass Details

Date: 12 October 2022
Orbit: 509 x 3255 km, 33.3° (Epoch: 08 December)

Event Time Altitude Azimuth Distance (km) Brightness Sun altitude
Rises 11:20:41 0° 274° (W) 2,909 9.9 48.4°
Reaches altitude 10° 11:22:50 10° 263° (W) 2,180 9.4 48.5°
Maximum altitude 11:27:17 32° 200° (SSW) 1,544 9.8 48.8°
Drops below altitude 10° 11:34:09 10° 141° (SE) 3,422 11.1 49.1°
Sets 11:38:25 0° 133° (SE) 4,901 11.6 49.3°
